User: anonymous   Login
Location: Ariel
(45.9570°N, 122.5700°W)
Time: 11:49:16
(UTC-07:00)
Language:

XW-2B - Orbit

View from above orbital plane
View from above orbital plane
View from above satellite
View from above satellite

Ground track
Ground track

The orbit data is extracted from the following two-line orbital elements,

1 40911U 15049N   20296.05260611  .00000964  00000-0  53007-4 0  9992
2 40911  97.4806 296.0026 0012600 296.9344 113.0258 15.16402248281354
Epoch (UTC): 22 October 2020 01:15:45
Eccentricity: 0.0012600
inclination: 97.4806°
perigee height: 508 km
apogee height: 525 km
right ascension of ascending node: 296.0026°
argument of perigee: 296.9344°
revolutions per day: 15.16402248
mean anomaly at epoch: 113.0258°
orbit number at epoch: 28135

The dashed part of the orbit path shows where the satellite is in the earth's shadow,  

DLR